Погода в Кушадасы

Турция     37°51′37″N   27°15′23″E
В апреле 2022 года жителям России запретили посещать сайт meteo.paraplan.net по решению Генеральной прокуратуры. Аудитория сайта уменьшилась в 10 раз. Владельцы сайта не видят смысла в поддержке погодного сервера в таких условиях. Сайт будет закрыт в октябре.
темп.,
°C
ветер,
м/с
пор.,
м/с
влажн.,
%
обл.,
%
осадки,
мм/ч
давл.,
гПа
погр.,
м
25 сентября, вс
вс2500:00+16ссв33480 0.0 1019137
03:00+15св33460 0.0 1018118
06:00+14св33420 0.0 1018109
09:00+17св23320 0.0 1019193
12:00+22зсз32280 0.0 1019508
15:00+23сз33280 0.0 1017529
18:00+22сз33425 0.0 1017273
21:00+19сз22650 0.0 1018188
26 сентября, пн
пн2600:00+18с11630 0.0 1017180
03:00+16в22650 0.0 101767
06:00+14всв22560 0.0 101766
09:00+18в22365 0.0 1017151
12:00+23зсз2127100 0.0 1016501
15:00+24зсз43304 0.0 1015524
18:00+22зсз23504 0.0 1014333
21:00+18юв2271100 0.0 101580
27 сентября, вт
вт2700:00+17юв3371100 0.0 101486
03:00+16юв3373100 0.0 101394
06:00+16юв336886 0.0 1012101
09:00+20юв345340 0.0 1011223
12:00+25ююз464731 0.0 1011795
15:00+25ююз564538 0.0 1010680
18:00+24ююз454828 0.0 1009559
21:00+21ююв336066 0.0 101067
28 сентября, ср
ср2800:00+20ююв345659 0.0 100976
03:00+21ююв335441 0.0 100982
06:00+19ююв337156 0.3 100983
09:00+22юв34650 0.4 1009232
12:00+26ююз45580 0.1 1009919
15:00+27юз57534 0.1 1008896
18:00+25ююз56610 0.0 1008512
21:00+21ююв34880 0.0 100963
29 сентября, чт
чт2900:00+20ююв3390100 0.1 101073
03:00+20юв33910 0.1 101177
06:00+19вюв33900 0.0 101088
09:00+22юв34772 0.0 1011273
12:00+26ююз34560 0.0 1011766
15:00+26ююз455613 0.0 1011675
18:00+24ю44675 0.0 1011472
21:00+20юв339382 0.0 101389